Torna al catalogo

FENGYUN 1C DEB

LostSSO
NORAD 31079·DEBRIS·🇨🇳 China

Lanciato May 10, 1999 da Taiyuan Satellite Launch Center

Loading…

Prossimi Passaggi (prossime 24 ore)

TLE

ObsoletoSource: Space-Track

Epoca: Sep 10, 2015, 07:29 UTC

1 31079U 99025BFZ 15253.31222079  .00001357  00000-0  89508-3 0  9996
2 31079  99.0846 284.2475 0062121 103.4289 251.3901 14.02529851434435

Traccia FENGYUN 1C DEB in tempo reale con AllMySat

Download on the App Store